Regional Weather Roundup
Issued by NWS

Home | Current Version | Previous Version | Text Only | Print | Product List | Glossary On
Versions: 1 2 3 4 5 6 7 8 9 10 11 12 13 14 15 16 17 18 19 20 21 22 23 24 25 26 27 28 29 30 31 32 33 34 35 36 37 38 39 40 41 42 43 44 45 46 47 48 49 50
000
ASUS46 KSTO 270715
RWRCA

NORTHERN AND CENTRAL CA REGIONAL WEATHER ROUNDUP
NATIONAL WEATHER SERVICE SACRAMENTO CA
1200 AM PDT FRI APR 27 2018

NOTE: FAIR INDICATES FEW OR NO CLOUDS BELOW 12,000 FEET WITH NO
SIGNIFICANT WEATHER AND/OR OBSTRUCTIONS TO VISIBILITY.

CAZ001-003-270800-
NORTHWEST AREA

CITY           SKY/WX    TMP DP  RH WIND       PRES   REMARKS
CRESCENT CITY  CLOUDY    51  47  86 CALM      30.02R
UKIAH          PTCLDY    50  42  74 CALM      30.00R
$$

CAZ006-505>513-270800-
BAY AREA

CITY           SKY/WX    TMP DP  RH WIND       PRES   REMARKS
SANTA ROSA     MOCLDY    47  44  90 S3        30.00R
SAN RAFAEL     N/A       51  MM  MM MISG
NAPA           PTCLDY    50  46  86 SW10      30.01S
CONCORD        CLEAR     54  45  71 SW15G23   30.02R
OAKLAND CITY   N/A      MM  MM  MM MISG
OAKLAND        MOCLDY    54  48  80 W10       30.04F
SAN FRAN CITY  N/A       52  MM  77 MISG
SAN FRAN ARPT  MOCLDY    55  46  71 W7        30.04S
LIVERMORE      MOCLDY    51  46  83 SW8       30.03R
HAYWARD        CLOUDY    56  43  61 W10       30.04S
REDWOOD CITY   N/A       53  MM  74 MISG
MOFFETT ARPT   CLEAR     54  45  71 W3        30.06S
SAN JOSE ARPT  MOCLDY    55  44  66 W10       30.06R
$$
CAZ034-037-514>518-270800-
CENTRAL COAST

CITY           SKY/WX    TMP DP  RH WIND       PRES   REMARKS
WATSONVILLE    CLOUDY    49  47  93 W3        30.07R
SALINAS        CLOUDY    55  45  68 W6        30.07R
MONTEREY       CLOUDY    54  46  74 S3        30.08R
SAN LUIS OBISP CLOUDY    54  45  71 NW6       30.07S
SANTA MARIA    CLOUDY    54  48  80 W5        30.07S
$$
CAZ015-016-270800-
NORTHERN SACRAMENTO VALLEY

CITY           SKY/WX    TMP DP  RH WIND       PRES   REMARKS
REDDING        CLEAR     67  46  47 S12       29.85R
RED BLUFF      CLOUDY    63  48  58 S10       29.87R
OROVILLE       PTCLDY    59  48  67 SE20      29.91R
$$
CAZ016>018-270800-
SOUTHERN SACRAMENTO VALLEY

CITY           SKY/WX    TMP DP  RH WIND       PRES   REMARKS
AUBURN         CLEAR     54  43  66 SE10      29.96S
BEALE AFB      CLEAR     55  46  73 SE18G24   29.91R
LINCOLN        FAIR      52  45  76 SE17      29.94R
MARYSVILLE     CLEAR     54  46  74 SE17G24   29.92R
SAC INTL ARPT  CLEAR     51  45  79 S15       29.92R
MATHER AIRPORT NOT AVBL
DOWNTOWN SAC   N/A       52  MM  MM MISG
SAC EXEC ARPT  CLEAR     51  46  83 MISG      29.95R
VACAVILLE      CLEAR     53  45  74 SW18G24   29.94S
$$
CAZ019>021-270800-
SAN JOAQUIN VALLEY

CITY           SKY/WX    TMP DP  RH WIND       PRES   REMARKS
STOCKTON       CLEAR     54  44  69 W20       29.98R
MODESTO        CLEAR     54  45  71 N12       29.97R
MERCED         CLEAR     55  48  77 W6        29.96R
LEMOORE        CLEAR     64  42  44 NW14      29.93R
FRESNO         PTCLDY    63  46  54 NW17G26   29.92R
HANFORD        CLEAR     65  47  52 NW12      29.92R
PORTERVILLE    CLEAR     62  33  33 S7        29.94R
BAKERSFIELD    CLEAR     69  27  20 N13       29.92R
$$
CAZ011-012-071-270800-
NORTHERN MOUNTAINS

CITY           SKY/WX    TMP DP  RH WIND       PRES   REMARKS
YREKA          PTCLDY    60  40  47 CALM      29.88R
MOUNT SHASTA   PTCLDY    57  46  66 E3        29.93F
ALTURAS        CLOUDY    62  39  42 W6        29.92F
$$
CAZ011-012-071-270800-
SIERRA NEVADA MTNS

CITY           SKY/WX    TMP DP  RH WIND       PRES   REMARKS
BLUE CANYON    MOCLDY    50  44  80 E3        30.04S
TRUCKEE        PTCLDY    39  37  93 E3        30.04S
TAHOE VLY ARPT CLEAR     43  37  79 S3        30.04F
MAMMOTH LAKES  FAIR      50  28  41 SE3       30.12F
$$




USA.gov is the U.S. government's official web portal to all federal, state and local government web resources and services.